Shawano, WI

9:37 PM CDT on June 27, 2017 (GMT -0500)
Shawano

Weather History for KEZS - March, 2012

Change the Weather History Date:

Monday, March 5, 2012

  Actual Average (KCLI) Record (KCLI)
Temperature  
Mean Temperature 20 °F -  
Max Temperature 32 °F 37 °F 52 °F (1974)
Min Temperature 7 °F 16 °F -10 °F (1978)
Degree Days  
Heating Degree Days 46    
Moisture  
Dew Point 13 °F    
Average Humidity 72    
Maximum Humidity 89    
Minimum Humidity 48    
Precipitation  
Precipitation 0.00 in - - ()
Sea Level Pressure  
Sea Level Pressure 30.19 in    
Wind  
Wind Speed 2 mph (SSW)    
Max Wind Speed 13 mph    
Max Gust Speed 20 mph    
Visibility 9 miles    
Events Snow    
Averages and records for this station are not official NWS values.
T = Trace of Precipitation, MM = Missing Value Source: NWS Daily Summary

Daily Weather History Graph

Daily Weather History Graph

Search for Another Location

Airport or City:

Trip Planner

Search our weather history database for the weather conditions in past years. The results will help you decide how hot, cold, wet, or windy it might be!

Date:

Astronomy

Mar. 05, 2012 Rise Set
Actual Time 6:23 AM CST 5:47 PM CST
Civil Twilight 5:54 AM CST 6:17 PM CST
Nautical Twilight 5:20 AM CST 6:51 PM CST
Astronomical Twilight 4:46 AM CST 7:25 PM CST
Moon 3:00 PM CST (3/5) 4:29 AM CST (3/5)
Length of Visible Light 12h 22m
Length of Day
11h 23m
Waxing Gibbous, 91% of the Moon is Illuminated
Mar 5
Waxing Gibbous
Mar 8
Full
Mar 14
Last Quarter
Mar 22
New
Mar 30
First Quarter

Hourly Weather History & Observations

Time (CST) Temp. Windchill Dew Point Humidity Pressure Visibility Wind Dir Wind Speed Gust Speed Precip Events Conditions
12:15 AM 9.0 °F - 5.5 °F 86% 30.04 in 3.0 mi Calm Calm - N/A   Scattered Clouds
12:55 AM 9.7 °F - 6.3 °F 86% 30.07 in 4.0 mi Calm Calm - N/A   Scattered Clouds
1:35 AM 9.5 °F - 6.1 °F 86% 30.09 in 5.0 mi Calm Calm - N/A   Overcast
1:55 AM 10.2 °F - 6.8 °F 86% 30.09 in 10.0 mi Calm Calm - N/A   Mostly Cloudy
2:15 AM 8.8 °F - 5.2 °F 85% 30.10 in 10.0 mi Calm Calm - N/A   Clear
2:35 AM 8.2 °F - 4.6 °F 85% 30.11 in 10.0 mi Calm Calm - N/A   Clear
2:55 AM 7.2 °F - 3.4 °F 85% 30.11 in 10.0 mi Calm Calm - N/A   Scattered Clouds
3:35 AM 8.4 °F - 5.0 °F 86% 30.12 in 10.0 mi Calm Calm - N/A   Overcast
3:55 AM 10.0 °F - 6.6 °F 86% 30.13 in 10.0 mi Calm Calm - N/A   Overcast
4:15 AM 10.8 °F - 7.2 °F 85% 30.14 in 10.0 mi Calm Calm - N/A   Mostly Cloudy
4:35 AM 10.4 °F - 7.0 °F 86% 30.14 in 10.0 mi Calm Calm - N/A   Clear
4:55 AM 9.7 °F - 6.3 °F 86% 30.15 in 10.0 mi Calm Calm - N/A   Mostly Cloudy
5:15 AM 10.0 °F - 6.4 °F 85% 30.16 in 10.0 mi Calm Calm - N/A   Overcast
5:35 AM 10.4 °F 4.0 °F 6.6 °F 85% 30.17 in 10.0 mi NNE 3.5 mph - N/A   Overcast
5:55 AM 10.0 °F - 6.4 °F 85% 30.17 in 10.0 mi Calm Calm - N/A   Overcast
6:15 AM 9.1 °F - 5.4 °F 85% 30.19 in 10.0 mi Calm Calm - N/A   Overcast
6:55 AM 9.9 °F - 6.3 °F 85% 30.21 in 10.0 mi Calm Calm - N/A   Overcast
7:15 AM 11.5 °F - 7.9 °F 85% 30.22 in 10.0 mi Calm Calm - N/A   Overcast
7:35 AM 12.6 °F - 9.1 °F 86% 30.23 in 10.0 mi Calm Calm - N/A   Overcast
7:55 AM 13.8 °F - 10.6 °F 87% 30.23 in 10.0 mi Calm Calm - N/A   Overcast
8:15 AM 14.7 °F - 11.5 °F 87% 30.24 in 10.0 mi Calm Calm - N/A   Overcast
8:35 AM 16.7 °F - 13.6 °F 88% 30.24 in 10.0 mi Calm Calm - N/A   Overcast
8:55 AM 17.2 °F - 14.5 °F 89% 30.24 in 10.0 mi Calm Calm - N/A   Scattered Clouds
9:15 AM 18.9 °F - 16.2 °F 89% 30.25 in 10.0 mi Calm Calm - N/A   Clear
9:55 AM 21.7 °F 15.5 °F 17.4 °F 83% 30.26 in 10.0 mi South 4.6 mph - N/A   Clear
10:15 AM 23.4 °F 18.9 °F 14.7 °F 70% 30.26 in 10.0 mi SW 3.5 mph - N/A   Clear
10:35 AM 25.3 °F - 14.0 °F 62% 30.25 in 10.0 mi Calm Calm - N/A   Clear
10:55 AM 26.8 °F 20.2 °F 14.5 °F 60% 30.25 in 10.0 mi SSW 5.8 mph - N/A   Clear
11:15 AM 27.7 °F 22.4 °F 14.7 °F 58% 30.26 in 10.0 mi SW 4.6 mph - N/A   Clear
11:35 AM 28.2 °F 20.2 °F 14.9 °F 57% 30.26 in 10.0 mi WSW 8.1 mph - N/A   Clear
12:35 PM 31.1 °F 24.5 °F 15.3 °F 52% 30.24 in 10.0 mi SW 6.9 mph - N/A   Clear
12:55 PM 31.5 °F 24.2 °F 15.4 °F 52% 30.24 in 10.0 mi WSW 8.1 mph - N/A   Clear
1:15 PM 31.8 °F 23.9 °F 16.0 °F 52% 30.23 in 10.0 mi WSW 9.2 mph - N/A   Clear
1:35 PM 32.2 °F 25.8 °F 16.0 °F 51% 30.22 in 10.0 mi South 6.9 mph - N/A   Clear
1:55 PM 32.4 °F 25.3 °F 15.8 °F 51% 30.22 in 10.0 mi SSW 8.1 mph - N/A   Clear
2:15 PM 32.9 °F 25.9 °F 15.1 °F 48% 30.22 in 10.0 mi SSW 8.1 mph - N/A   Clear
2:35 PM 32.9 °F 25.3 °F 15.1 °F 48% 30.21 in 10.0 mi South 9.2 mph - N/A   Scattered Clouds
2:55 PM 32.7 °F 26.4 °F 16.7 °F 52% 30.20 in 10.0 mi South 6.9 mph - N/A   Scattered Clouds
3:15 PM 32.4 °F 26.0 °F 18.0 °F 55% 30.20 in 10.0 mi South 6.9 mph - N/A   Clear
3:35 PM 32.0 °F 24.8 °F 18.3 °F 57% 30.19 in 10.0 mi South 8.1 mph - N/A   Clear
3:55 PM 32.0 °F 25.6 °F 18.0 °F 56% 30.19 in 10.0 mi SSW 6.9 mph - N/A   Clear
4:15 PM 31.8 °F 25.4 °F 17.2 °F 55% 30.18 in 10.0 mi South 6.9 mph - N/A   Clear
4:35 PM 31.5 °F 24.9 °F 17.4 °F 56% 30.19 in 10.0 mi South 6.9 mph 16.1 mph N/A   Clear
4:55 PM 30.7 °F 20.9 °F 16.7 °F 56% 30.19 in 10.0 mi SSW 12.7 mph 19.6 mph N/A   Mostly Cloudy
5:15 PM 30.4 °F 23.6 °F 16.9 °F 57% 30.20 in 10.0 mi SSW 6.9 mph 16.1 mph N/A   Overcast
5:35 PM 30.2 °F 22.6 °F 16.7 °F 57% 30.20 in 10.0 mi South 8.1 mph - N/A   Overcast
5:55 PM 29.8 °F 23.0 °F 16.5 °F 58% 30.19 in 10.0 mi South 6.9 mph - N/A   Overcast
6:15 PM 29.8 °F 22.2 °F 16.9 °F 59% 30.19 in 10.0 mi South 8.1 mph - N/A   Overcast
6:35 PM 29.7 °F 22.0 °F 18.0 °F 62% 30.20 in 2.5 mi SSW 8.1 mph 17.3 mph N/A Snow Light Snow
7:15 PM 28.2 °F 22.0 °F 22.1 °F 78% 30.19 in 3.0 mi South 5.8 mph - N/A Snow Light Snow
7:35 PM 28.0 °F 22.8 °F 22.6 °F 80% 30.18 in 10.0 mi South 4.6 mph - N/A   Overcast
7:55 PM 28.0 °F 22.8 °F 22.3 °F 79% 30.18 in 10.0 mi South 4.6 mph - N/A   Overcast
8:15 PM 28.4 °F 23.3 °F 21.7 °F 76% 30.18 in 10.0 mi South 4.6 mph - N/A   Overcast
8:35 PM 28.6 °F 22.4 °F 21.4 °F 74% 30.18 in 10.0 mi South 5.8 mph - N/A   Overcast
8:55 PM 28.9 °F 21.9 °F 21.2 °F 73% 30.17 in 10.0 mi South 6.9 mph - N/A   Overcast
9:15 PM 29.1 °F 23.0 °F 21.0 °F 72% 30.17 in 10.0 mi South 5.8 mph - N/A   Overcast
9:35 PM 29.3 °F 24.3 °F 20.8 °F 71% 30.17 in 10.0 mi South 4.6 mph - N/A   Overcast
9:55 PM 29.5 °F 24.5 °F 20.8 °F 70% 30.16 in 10.0 mi South 4.6 mph - N/A   Overcast
10:15 PM 29.7 °F 26.1 °F 21.0 °F 70% 30.16 in 10.0 mi South 3.5 mph - N/A   Overcast
10:35 PM 29.5 °F 24.5 °F 21.2 °F 71% 30.15 in 10.0 mi South 4.6 mph - N/A   Scattered Clouds
10:55 PM 29.1 °F 25.4 °F 21.2 °F 72% 30.15 in 10.0 mi South 3.5 mph - N/A   Clear
11:15 PM 29.1 °F 21.3 °F 21.6 °F 73% 30.14 in 10.0 mi South 8.1 mph - N/A   Clear
11:35 PM 29.3 °F 24.3 °F 21.9 °F 74% 30.13 in 10.0 mi South 4.6 mph - N/A   Clear
11:55 PM 29.3 °F 22.3 °F 21.9 °F 74% 30.12 in 10.0 mi South 6.9 mph - N/A   Clear